298P/Christensen (2020)

Japanese version
Home page
Updated on March 5, 2020

---------------------------------------------------------------------

* Profile

* Orbital Elements

Epoch 2020 Aug. 19.0 TT = JDT 2459080.5
T 2020 Sept. 6.37967 TT                                 MPCW
q   2.2031697            (2000.0)            P               Q
n   0.14470863     Peri.  100.69196     -0.88769709     -0.44731454
a   3.5931314      Node    52.82569     +0.35047379     -0.81013842
e   0.3868385      Incl.    7.87006     +0.29860007     -0.37892669
P   6.81
From 137 observations 2007 Feb. 9-2014 Apr. 1, mean residual 0".5.

* Magnitudes Graph

        m1 = 15.2 + 5 log d + 10.0 log r

---------------------------------------------------------------------

The orbital elements are published on M.P.E.C. 2019-J142.
The magnitudes graphs are made with Comet for Windows.

---------------------------------------------------------------------

Copyright(C) Seiichi Yoshida (comet@aerith.net). All rights reserved.